Weather History for Altus AFB, OK

Change the Weather History Date:

Friday, August 23, 2013

  Actual Average Record
Temperature  
Mean Temperature 85 °F -  
Max Temperature 100 °F 93 °F 107 °F (2011)
Min Temperature 71 °F 69 °F 64 °F (2014)
Cooling Degree Days 20    
Growing Degree Days 35 (Base 50)    
Moisture  
Dew Point 63 °F    
Average Humidity 51    
Maximum Humidity 79    
Minimum Humidity 24    
Precipitation  
Precipitation 0.00 in - - ()
Sea Level Pressure  
Sea Level Pressure 29.95 in    
Wind  
Wind Speed 7 mph (SE)    
Max Wind Speed 17 mph    
Max Gust Speed 17 mph    
Visibility 10 miles    
Events      
Averages and records for this station are not official NWS values.
T = Trace of Precipitation, MM = Missing Value Source: NWS Daily Summary

Daily Weather History Graph

Daily Weather History Graph

Search for Another Location

Airport:

Trip Planner

Search our weather history database for the weather conditions in past years. The results will help you decide how hot, cold, wet, or windy it might be!

Date:

Astronomy

Aug. 23, 2013 Rise Set
Actual Time 7:03 AM CDT 8:14 PM CDT
Civil Twilight 6:37 AM CDT 8:40 PM CDT
Nautical Twilight 6:06 AM CDT 9:12 PM CDT
Astronomical Twilight 5:33 AM CDT 9:44 PM CDT
Moon 9:45 PM CDT (8/23) 9:50 AM CDT (8/23)
Length of Visible Light 14h 03m
Length of Day
13h 11m
Waning Gibbous, 91% of the Moon is Illuminated
Aug 23
Waning Gibbous
Aug 28
Last Quarter
Sep 5
New
Sep 12
First Quarter
Sep 19
Full

Hourly Weather History & Observations

Time (CDT) Temp. Heat Index Dew Point Humidity Pressure Visibility Wind Dir Wind Speed Gust Speed Precip Events Conditions
12:58 AM 79.2 °F - 64.4 °F 60% 29.96 in 10.0 mi SE 5.8 mph - N/A   Clear
1:58 AM 77.2 °F - 64.4 °F 65% 29.95 in 10.0 mi SE 5.8 mph - N/A   Partly Cloudy
2:58 AM 74.8 °F - 64.0 °F 69% 29.95 in 10.0 mi ESE 6.9 mph - N/A   Clear
3:58 AM 73.2 °F - 64.6 °F 74% 29.96 in 10.0 mi NE 2.3 mph - N/A   Clear
4:58 AM 72.5 °F - 64.6 °F 76% 29.96 in 10.0 mi East 4.6 mph - N/A   Partly Cloudy
5:58 AM 71.2 °F - 64.4 °F 79% 29.96 in 10.0 mi East 2.3 mph - N/A   Clear
6:58 AM 71.8 °F - 64.4 °F 77% 29.96 in 10.0 mi East 3.5 mph - N/A   Clear
7:58 AM 73.4 °F - 65.3 °F 76% 29.98 in 10.0 mi ESE 6.9 mph - N/A   Clear
8:58 AM 79.7 °F - 66.0 °F 63% 30.00 in 10.0 mi ESE 6.9 mph - N/A   Clear
9:58 AM 85.6 °F 87.4 °F 65.3 °F 50% 30.00 in 10.0 mi SSE 6.9 mph - N/A   Clear
10:58 AM 90.5 °F 92.2 °F 64.2 °F 42% 30.01 in 10.0 mi Variable 4.6 mph - N/A   Clear
11:58 AM 94.5 °F 94.8 °F 61.2 °F 33% 30.00 in 10.0 mi South 6.9 mph - N/A   Clear
12:58 PM 95.7 °F 96.3 °F 61.3 °F 32% 29.98 in 10.0 mi SSW 4.6 mph - N/A   Partly Cloudy
1:58 PM 96.3 °F 96.3 °F 60.4 °F 30% 29.96 in 10.0 mi South 5.8 mph - N/A   Partly Cloudy
2:58 PM 98.1 °F 98.1 °F 59.4 °F 28% 29.93 in 10.0 mi Variable 6.9 mph - N/A   Scattered Clouds
3:58 PM 99.5 °F 99.4 °F 58.6 °F 26% 29.91 in 10.0 mi SSE 11.5 mph 17.3 mph N/A   Partly Cloudy
4:58 PM 99.9 °F 99.0 °F 56.5 °F 24% 29.89 in 8.0 mi Variable 2.3 mph - N/A   Clear
5:58 PM 98.4 °F 97.8 °F 58.3 °F 26% 29.88 in 10.0 mi SE 12.7 mph - N/A   Scattered Clouds
6:58 PM 95.7 °F 96.3 °F 61.5 °F 32% 29.88 in 10.0 mi ESE 17.3 mph - N/A   Partly Cloudy
7:58 PM 91.9 °F 93.3 °F 64.0 °F 39% 29.89 in 10.0 mi SE 13.8 mph - N/A   Partly Cloudy
8:58 PM 87.3 °F 88.6 °F 63.9 °F 46% 29.91 in 10.0 mi SE 11.5 mph - N/A   Clear
9:58 PM 82.2 °F 83.7 °F 64.2 °F 54% 29.95 in 10.0 mi ESE 9.2 mph - N/A   Clear
10:58 PM 83.5 °F 86.2 °F 67.1 °F 58% 29.96 in 10.0 mi ESE 11.5 mph - N/A   Clear
11:58 PM 82.2 °F 84.7 °F 67.3 °F 60% 29.97 in 10.0 mi SE 11.5 mph - N/A   Mostly Cloudy